Station VENF1 - Venice, FL Image indicating link to RSS feed of recent meteorological observations for station VENF1


Conditions at VENF1 as of
(2:00 pm EDT)
1800 GMT on 05/24/2024:
     

Click on the graph icon in the table below to see a time series plot of the last five days of that observation.

5-day plot - Wind Direction Wind Direction (WDIR): SW ( 220 deg true )
5-day plot - Wind Speed Wind Speed (WSPD): 12 kts
5-day plot - Wind Gust Wind Gust (GST): 13 kts
5-day plot - Atmospheric Pressure Atmospheric Pressure (PRES):29.93 in
5-day plot - Pressure Tendency Pressure Tendency (PTDY):-0.03 in ( Falling )
5-day plot - Air Temperature Air Temperature (ATMP): 82.8 °F
5-day plot - Water Temperature Water Temperature (WTMP): 82.6 °F
5-day plot - Dew Point Dew Point (DEWP): 75.7 °F
5-day plot - Heat Index Heat Index (HEAT): 90.5 °F
5-day plot - Wind Speed at 10 Meters Wind Speed at 10 meters (WSPD10M): 12 kts
5-day plot - Wind Speed at 20 Meters Wind Speed at 20 meters (WSPD20M): 14 kts
5-day plot -  Wind Speed, Wind Gust and Atmospheric Pressure Combined plot of Wind Speed, Gust, and Air Pressure
Continuous Winds
TIME
(EDT)
5-day plot - Wind Direction WDIR 5-day plot - Wind Speed WSPD
2:00 pmSW ( 218 deg ) 12 kts
1:50 pmSW ( 218 deg ) 12 kts
1:40 pmSW ( 220 deg ) 12 kts
1:30 pmSW ( 223 deg ) 12 kts
1:20 pmSW ( 217 deg ) 12 kts
1:10 pmSW ( 216 deg ) 11 kts
 
Peak gust during the measurement hour
TIME
(EDT)
5-day plot - Gust Direction GDR 5-day plot - Gust Speed GST
1:29 pmSW ( 220 deg ) 14 kts
Previous observations
TIME
(EDT)
5-day plot - Wind Direction
WDIR
 
5-day plot - Wind Speed
WSPD
kts
5-day plot - Wind Gust
GST
kts
5-day plot - Wave Height
WVHT
ft
5-day plot - Dominant Wave Period
DPD
sec
5-day plot - Average Wave Period
APD
sec
5-day plot - Mean Wave Direction
MWD
 
5-day plot - Atmospheric Pressure
PRES
in
5-day plot - Pressure Tendency
PTDY
in
5-day plot - Air Temperature
ATMP
°F
5-day plot - Water Temperature
WTMP
°F
5-day plot - Dew Point
DEWP
°F
5-day plot - Salinity
SAL
psu
5-day plot - Visibility
VIS
nmi
5-day plot - Tide (above MLLW)
TIDE
ft
2024-05-24 12:00 pm SW 8 9----29.97+0.01 82.6 82.6 75.6---
2024-05-24 11:00 amSSW 9 9----29.96+0.01 81.9 82.6 75.9---
2024-05-24 10:00 amSSE 7 8----29.97+0.03 81.3 82.6 75.0---
2024-05-24 09:00 amSSE 9 11----29.96+0.02 80.4 82.6 74.5---
2024-05-24 08:00 amESE 6 8----29.95+0.02 78.1 82.6 73.0---
2024-05-24 07:00 am E 5 6----29.94+0.00 75.7 82.6 72.3---
2024-05-24 06:00 am E 4 6----29.94+0.00 75.7 82.6 72.1---
2024-05-24 05:00 amESE 6 8----29.93-0.02 76.6 82.6 72.3---
2024-05-24 04:00 am E 5 7----29.93-0.02 77.0 82.6 72.7---
2024-05-24 03:00 am E 5 6----29.93-0.05 77.0 82.6 72.7---
2024-05-24 02:00 amENE 4 6----29.95-0.03 77.7 82.6 72.5---
2024-05-24 01:00 am NE 10 12----29.95-0.01 79.0 82.6 72.9---
2024-05-24 12:00 am N 7 8----29.98+0.03 80.6 82.6 75.6---
2024-05-23 11:00 pm N 7 8----29.98+0.03 81.1 82.6 75.7---
2024-05-23 10:00 pmNNW 13 14----29.97+0.02 82.4 82.6 76.3---
2024-05-23 09:00 pmNNW 13 14----29.95+0.02 82.0 82.6 75.2---
2024-05-23 08:00 pm NW 9 11----29.95+0.02 82.2 82.6 75.7---
2024-05-23 07:00 pmWNW 9 9----29.94+0.00 82.4 82.6 75.0---
2024-05-23 06:00 pmWNW 10 11----29.93-0.03 82.8 82.6 74.8---
2024-05-23 05:00 pmWSW 10 11----29.93-0.04 82.8 82.6 74.8---
2024-05-23 04:00 pmWSW 11 12----29.94-0.04 82.2 82.6 73.8---
2024-05-23 03:00 pmWSW 11 12----29.96-0.04 82.2 82.6 74.1---
2024-05-23 02:00 pmSSW 10 11----29.97-0.04 81.9 82.6 72.7---